Regional Weather Roundup
Issued by NWS

Home | Current Version | Previous Version | Text Only | Print | Product List | Glossary Off
Versions: 1 2 3 4 5 6 7 8 9 10 11 12 13 14 15 16 17 18 19 20 21 22 23 24 25 26

000
ASUS45 KBOU 270707
RWRCO

WEATHER ROUNDUP FOR COLORADO
NATIONAL WEATHER SERVICE DENVER/BOULDER CO
100 AM MDT THU JUL 27 2017

NOTE: "FAIR" INDICATES FEW OR NO CLOUDS BELOW 12000 FEET WITH NO
SIGNIFICANT WEATHER AND/OR OBSTRUCTIONS TO VISIBILITY.

COZ001>005-013-030-031-270800-
...NORTHWEST COLORADO...

CITY           SKY/WX    TMP DP  RH WIND       PRES   REMARKS
CRAIG          MOCLDY    58  56  93 CALM      30.30S
HAYDEN         FAIR      61  54  77 E7        30.32S
MEEKER         FAIR      60  56  86 NE5       30.31S
RABBIT EARS PA FAIR      52  50  93 S7        30.62S
STEAMBOAT SPGS FAIR      58  55  91 N3        30.35S
WALDEN         MOCLDY    52  50  93 SE5       30.45S VSB 1/2
$$

COZ006>008-011-270800-
...WEST CENTRAL VALLEYS...

CITY           SKY/WX    TMP DP  RH WIND       PRES   REMARKS
GRAND JUNCTION FAIR      72  57  59 E3        30.15F
MONTROSE       FAIR      69  57  65 SE10      30.25F
EAGLE          CLOUDY    63  54  72 E7        30.34F
RIFLE          FAIR      68  59  73 SE8       30.23R
DELTA          FAIR      71  59  65 NE5       30.21R
NUCLA          FAIR      68  54  60 E7        30.29S
$$

COZ017>023-064>068-270800-
...SOUTHWEST COLORADO...

CITY           SKY/WX    TMP DP  RH WIND       PRES   REMARKS
DURANGO        FAIR      65  53  65 N6        30.28S
CORTEZ         FAIR      63  58  83 E6        30.24R
PAGOSA SPRINGS FAIR      61  49  66 CALM      30.37F
TELLURIDE      FAIR      56  53  90 E3        30.51S
WOLF CREEK PAS MOCLDY    50  45  81 CALM      30.75F
$$

COZ009-010-012-014-032>034-037-058>063-270800-
...CENTRAL COLORADO...

CITY           SKY/WX    TMP DP  RH WIND       PRES   REMARKS
ASPEN          MOCLDY    57  54  89 SW5       30.40R
BUENA VISTA    CLOUDY    59  53  80 E6        30.45S
COPPER MTN     CLOUDY    54  46  76 CALM      30.72F
BERTHOUD PASS  HAZE      43  32  65 S9        30.75F VSB 1/4
COTTONWOOD PAS CLOUDY    55  52  88 E7        30.58S
GUNNISON       FAIR      59  52  77 N6        30.40S
KREMMLING      FAIR      61  57  88 CALM      30.41S
LEADVILLE      MOCLDY    53  49  86 SE5       30.55R
MONARCH PASS   CLOUDY    48  46  93 E12       30.81S
SALIDA         CLOUDY    64  55  73 SE7       30.50R
SUNLIGHT       FAIR      52  45  76 CALM      30.66S
WILKERSON PASS FOG       46  46 100 NE3       30.69F VSB 1/4
$$

COZ069>075-270800-
...SAN LUIS VALLEY/SANGRE DE CRISTO MOUNTAINS...

CITY           SKY/WX    TMP DP  RH WIND       PRES   REMARKS
ALAMOSA        FAIR      61  56  83 W5        30.35F
DEL NORTE      FAIR      60  47  64 W8        30.40F
LA VETA PASS   NOT AVBL
SAGUACHE         N/A    N/A N/A N/A MISG        N/A
$$

COZ035-036-038>040-270800-
...NORTHERN COLORADO FRONT RANGE...

CITY           SKY/WX    TMP DP  RH WIND       PRES   REMARKS
DENVER INTL AP MOCLDY    65  62  90 SW9       30.29F
DMNS CITY PARK   N/A     64  63  96 SE7       30.30F
AURORA         CLOUDY    63  63 100 W7        30.32F
FRONT RANGE AP CLOUDY    64  64 100 SW7       30.31F FOG
ERIE MUNI ARPT CLOUDY    66  63  92 S5        30.28F
BOULDER MUN AP MOCLDY    64  64 100 SW3       30.28F
CENTENNIAL     MOCLDY    62  61  96 SW7       30.33F
BROOMFIELD     MOCLDY    63  61  94 CALM      30.32F
FORT COLLINS   FAIR      65  62  90 SW5       30.27F
LONGMONT       MOCLDY    68  64  86 CALM      30.28F
$$

COZ041-046-047-076>085-087-088-270800-
...PIKES PEAK/PALMER DIVIDE AND SOUTHERN FOOTHILLS...

CITY           SKY/WX    TMP DP  RH WIND       PRES   REMARKS
COLO. SPRINGS  LGT RAIN  64  62  93 NE8       30.37R
A. F. ACADEMY  RAIN      62  61  99 NW6       30.39R
SCHRIEVER AFB  SHOWER    61  59  94 NW3       30.38R
CHEYENNE MTN   LGT RAIN  61  57  88 N7        30.36R
ELLICOTT       LGT RAIN N/A N/A N/A N9        30.34S
FALCON         LGT RAIN  60  58  94 NW9       30.42R
FORT CARSON    LGT RAIN  63  62  98 E3        30.35R
LIMON          LGT RAIN  63  62  97 W10       30.30F
MONUMENT HILL  LGT RAIN  55  55 100 SE9       30.41F
CANON CITY     TSTM      63  61  94 SW5       30.33S
WALSENBURG     CLOUDY    66  63  88 N5        30.35R
TRINIDAD       CLOUDY    66  62  87 NW6       30.30S
$$

COZ042>045-048>051-090-091-270800-
...NORTHEAST COLORADO...

CITY           SKY/WX    TMP DP  RH WIND       PRES   REMARKS
GREELEY ARPT   FAIR      66  63  90 CALM      30.26F
AKRON          FAIR      67  63  87 SE7       30.24F
BURLINGTON     CLOUDY    69  66  90 N5        30.20S
WRAY           NOT AVBL
YUMA           FAIR      64  57  77 CALM      30.21F
STERLING       FAIR      68  64  88 CALM      30.20F
HOLYOKE        MOCLDY    68  64  88 CALM      30.20F
FORT MORGAN    FAIR      68  62  80 CALM      30.25F
$$

COZ086-089-092>099-270800-
...SOUTHEAST COLORADO...

CITY           SKY/WX    TMP DP  RH WIND       PRES   REMARKS
PUEBLO         CLOUDY    68  62  81 NW7       30.26S
LA JUNTA       FAIR      71  68  90 NE5       30.20R
LAMAR          LGT RAIN  71  68  90 E8        30.15S FOG
SPRINGFIELD      N/A     65  64  97 N15       30.20F
$$




USA.gov is the U.S. government's official web portal to all federal, state and local government web resources and services.